Main page
METAR-TAF:

METAR-TAF

Airports :

Jam Airport

Bandar Kangan, Iran

latitude: 27-49-14N, longitude: 52-21-08E, elevation: 662 m

Current weather observation

The report was made 22 minutes ago, at 05:00 UTC
Wind 4 kt from the East
Temperature 27°C
Humidity 30%
Pressure 1013 hPa
Visibility 10 km or more
Few clouds at a height of 3000 ft

METAR: OIBJ 200500Z 09004KT 9999 FEW030 27/08 Q1013

Time: 09:52 (05:22 UTC)


TAF: missing

Weather observations and forecasts of more than 4000 airports (METAR and TAF reports).

The available stations are represented by yellow and red dots on the map.

Hover mouse over dot to see the name of the station.

Then click to see weather observations and forecasts.

To change the map : click on the green buttons with a black cross to zoom in, on the green button with a dash to zoom out, or on the green arrows for adjacent maps.


METAR-TAF: